• In Österreich
  • Länderverzeichnis
  • Für 7 Tage
  • Wassertemperatur
  • Satellitenkarten
  • Wetterkarte
  • News
  • Widgets
  • user-avatar
    Anmelden

    Stündliche Wetter Gjirokaster

    Heute, 22 Oktober, Montag

    Zeit Temperatur Niederschläge Wind Luftdruck Luftfeuchtigkeit
    00:00 +8°C° 0 mm 2 m/S 651 mmHg 84%
    01:00 +8°C° 0 mm 2 m/S 651 mmHg 85%
    02:00 +7°C° 0 mm 3 m/S 651 mmHg 85%
    03:00 +7°C° 0 mm 3 m/S 651 mmHg 85%
    04:00 +7°C° 0 mm 3 m/S 651 mmHg 85%
    05:00 +7°C° 0 mm 3 m/S 651 mmHg 84%
    06:00 +6°C° 0 mm 4 m/S 651 mmHg 83%
    07:00 +7°C° 0 mm 4 m/S 651 mmHg 81%
    08:00 +8°C° 0.1 mm 4 m/S 652 mmHg 73%
    09:00 +10°C° 0.1 mm 4 m/S 652 mmHg 66%
    10:00 +12°C° 0.1 mm 4 m/S 652 mmHg 58%
    11:00 +12°C° 0.2 mm 5 m/S 652 mmHg 58%
    12:00 +12°C° 0.2 mm 5 m/S 652 mmHg 58%
    13:00 +12°C° 0.2 mm 5 m/S 652 mmHg 58%
    14:00 +10°C° 1.3 mm 5 m/S 651 mmHg 65%
    15:00 +9°C° 1.3 mm 5 m/S 651 mmHg 73%
    16:00 +8°C° 1.3 mm 4 m/S 651 mmHg 80%
    17:00 +8°C° 2 mm 4 m/S 651 mmHg 82%
    18:00 +7°C° 2 mm 4 m/S 651 mmHg 85%
    19:00 +8°C° 2 mm 3 m/S 651 mmHg 87%
    20:00 +7°C° 1.1 mm 4 m/S 651 mmHg 87%
    21:00 +7°C° 1.1 mm 4 m/S 651 mmHg 86%
    22:00 +6°C° 1.1 mm 4 m/S 651 mmHg 86%
    23:00 +6°C° 0.5 mm 4 m/S 651 mmHg 85%

    Morgen, 23 Oktober, Dienstag

    Zeit Temperatur Niederschläge Wind Luftdruck Luftfeuchtigkeit
    00:00 +7°C° 0.5 mm 3 m/S 651 mmHg 84%
    01:00 +8°C° 0.5 mm 3 m/S 651 mmHg 83%
    02:00 +7°C° 0.4 mm 3 m/S 651 mmHg 83%
    03:00 +7°C° 0.4 mm 3 m/S 650 mmHg 83%
    04:00 +7°C° 0.4 mm 3 m/S 650 mmHg 83%
    05:00 +7°C° 0.3 mm 3 m/S 650 mmHg 82%
    06:00 +7°C° 0.3 mm 3 m/S 651 mmHg 82%
    07:00 +7°C° 0.3 mm 3 m/S 651 mmHg 81%
    08:00 +9°C° 0 mm 3 m/S 651 mmHg 74%
    09:00 +10°C° 0 mm 3 m/S 652 mmHg 68%
    10:00 +11°C° 0 mm 3 m/S 652 mmHg 62%
    11:00 +13°C° 0 mm 2 m/S 652 mmHg 58%
    12:00 +14°C° 0 mm 2 m/S 652 mmHg 55%
    13:00 +14°C° 0 mm 2 m/S 652 mmHg 52%
    14:00 +14°C° 0 mm 2 m/S 652 mmHg 54%
    15:00 +14°C° 0 mm 2 m/S 652 mmHg 56%
    16:00 +13°C° 0 mm 2 m/S 652 mmHg 57%
    17:00 +12°C° 0 mm 2 m/S 651 mmHg 61%
    18:00 +10°C° 0 mm 3 m/S 651 mmHg 64%
    19:00 +8°C° 0 mm 3 m/S 651 mmHg 68%
    20:00 +8°C° 0 mm 2 m/S 651 mmHg 69%
    21:00 +8°C° 0 mm 2 m/S 651 mmHg 70%
    22:00 +7°C° 0 mm 2 m/S 651 mmHg 71%
    23:00 +7°C° 0 mm 2 m/S 651 mmHg 71%

    übermorgen, 24 Oktober, Mittwoch

    Zeit Temperatur Niederschläge Wind Luftdruck Luftfeuchtigkeit
    00:00 +7°C° 0 mm 2 m/S 650 mmHg 72%
    01:00 +6°C° 0 mm 2 m/S 650 mmHg 73%
    02:00 +6°C° 0 mm 2 m/S 650 mmHg 73%
    03:00 +6°C° 0 mm 2 m/S 649 mmHg 74%
    04:00 +6°C° 0 mm 2 m/S 649 mmHg 74%
    05:00 +6°C° 0 mm 2 m/S 649 mmHg 73%
    06:00 +6°C° 0 mm 2 m/S 649 mmHg 73%
    07:00 +7°C° 0 mm 3 m/S 649 mmHg 72%
    08:00 +9°C° 0 mm 3 m/S 650 mmHg 64%
    09:00 +10°C° 0 mm 3 m/S 650 mmHg 56%
    10:00 +12°C° 0 mm 3 m/S 650 mmHg 48%
    11:00 +13°C° 0 mm 4 m/S 650 mmHg 45%
    12:00 +14°C° 0 mm 5 m/S 650 mmHg 43%
    13:00 +14°C° 0 mm 5 m/S 649 mmHg 40%
    14:00 +13°C° 0 mm 5 m/S 649 mmHg 44%
    15:00 +13°C° 0 mm 5 m/S 649 mmHg 47%
    16:00 +12°C° 0 mm 5 m/S 648 mmHg 50%
    17:00 +9°C° 0 mm 5 m/S 648 mmHg 54%
    18:00 +8°C° 0 mm 4 m/S 648 mmHg 57%
    19:00 +7°C° 0 mm 4 m/S 648 mmHg 61%
    20:00 +6°C° 0 mm 4 m/S 648 mmHg 62%
    21:00 +6°C° 0 mm 4 m/S 649 mmHg 63%
    22:00 +6°C° 0 mm 4 m/S 649 mmHg 64%
    23:00 +6°C° 0 mm 4 m/S 649 mmHg 68%

    25 Oktober, Donnerstag

    Zeit Temperatur Niederschläge Wind Luftdruck Luftfeuchtigkeit
    00:00 +7°C° 0 mm 3 m/S 649 mmHg 73%
    01:00 +5°C° 0 mm 3 m/S 649 mmHg 78%
    02:00 +5°C° 0 mm 4 m/S 649 mmHg 80%
    03:00 +5°C° 0 mm 4 m/S 649 mmHg 83%
    04:00 +5°C° 0 mm 4 m/S 649 mmHg 85%
    05:00 +5°C° 0 mm 4 m/S 650 mmHg 84%
    06:00 +5°C° 0 mm 4 m/S 650 mmHg 82%
    07:00 +5°C° 0 mm 4 m/S 651 mmHg 80%
    08:00 +6°C° 0 mm 4 m/S 651 mmHg 68%
    09:00 +8°C° 0 mm 4 m/S 652 mmHg 56%
    10:00 +11°C° 0 mm 4 m/S 653 mmHg 44%
    11:00 +12°C° 0 mm 4 m/S 653 mmHg 42%
    12:00 +12°C° 0 mm 4 m/S 653 mmHg 39%
    13:00 +13°C° 0 mm 4 m/S 653 mmHg 36%
    14:00 +13°C° 0 mm 4 m/S 653 mmHg 39%
    15:00 +12°C° 0 mm 4 m/S 653 mmHg 41%
    16:00 +11°C° 0 mm 4 m/S 652 mmHg 44%
    17:00 +10°C° 0 mm 4 m/S 652 mmHg 46%
    18:00 +9°C° 0 mm 3 m/S 652 mmHg 49%
    19:00 +7°C° 0 mm 3 m/S 652 mmHg 51%
    20:00 +7°C° 0 mm 3 m/S 652 mmHg 51%
    21:00 +7°C° 0 mm 2 m/S 652 mmHg 50%
    22:00 +6°C° 0 mm 2 m/S 653 mmHg 50%
    23:00 +6°C° 0 mm 2 m/S 652 mmHg 50%

    26 Oktober, Freitag

    Zeit Temperatur Niederschläge Wind Luftdruck Luftfeuchtigkeit
    00:00 +6°C° 0 mm 2 m/S 652 mmHg 49%
    01:00 +6°C° 0 mm 2 m/S 652 mmHg 49%
    02:00 +6°C° 0 mm 2 m/S 652 mmHg 49%
    03:00 +7°C° 0 mm 1 m/S 652 mmHg 49%
    04:00 +7°C° 0 mm 1 m/S 652 mmHg 49%
    05:00 +7°C° 0 mm 1 m/S 652 mmHg 50%
    06:00 +7°C° 0 mm 2 m/S 653 mmHg 51%
    07:00 +7°C° 0 mm 2 m/S 653 mmHg 52%
    08:00 +9°C° 0 mm 2 m/S 654 mmHg 49%
    09:00 +12°C° 0 mm 2 m/S 654 mmHg 46%
    10:00 +14°C° 0 mm 2 m/S 655 mmHg 43%
    11:00 +14°C° 0 mm 3 m/S 655 mmHg 43%
    12:00 +14°C° 0 mm 3 m/S 654 mmHg 44%
    13:00 +16°C° 0 mm 3 m/S 654 mmHg 44%
    14:00 +14°C° 0 mm 3 m/S 654 mmHg 49%
    15:00 +13°C° 0 mm 3 m/S 654 mmHg 55%
    16:00 +13°C° 0 mm 3 m/S 654 mmHg 60%
    17:00 +11°C° 0 mm 3 m/S 654 mmHg 67%
    18:00 +10°C° 0 mm 3 m/S 654 mmHg 74%
    19:00 +9°C° 0 mm 3 m/S 653 mmHg 81%
    20:00 +8°C° 0 mm 3 m/S 654 mmHg 83%
    21:00 +8°C° 0 mm 3 m/S 654 mmHg 85%
    22:00 +7°C° 0 mm 4 m/S 654 mmHg 87%
    23:00 +6°C° 0 mm 4 m/S 654 mmHg 86%

    27 Oktober, Samstag

    Zeit Temperatur Niederschläge Wind Luftdruck Luftfeuchtigkeit
    00:00 +6°C° 0 mm 4 m/S 654 mmHg 85%
    01:00 +6°C° 0 mm 4 m/S 653 mmHg 84%
    02:00 +6°C° 0 mm 4 m/S 653 mmHg 85%
    03:00 +6°C° 0 mm 4 m/S 653 mmHg 86%
    04:00 +6°C° 0 mm 4 m/S 653 mmHg 87%
    05:00 +7°C° 0 mm 4 m/S 653 mmHg 87%
    06:00 +7°C° 0 mm 4 m/S 653 mmHg 87%
    07:00 +7°C° 0 mm 4 m/S 653 mmHg 87%
    08:00 +9°C° 0.1 mm 5 m/S 654 mmHg 82%
    09:00 +10°C° 0.1 mm 5 m/S 654 mmHg 77%
    10:00 +13°C° 0.1 mm 6 m/S 654 mmHg 72%
    11:00 +13°C° 0.1 mm 6 m/S 654 mmHg 70%
    12:00 +14°C° 0.1 mm 6 m/S 654 mmHg 69%
    13:00 +14°C° 0.1 mm 6 m/S 653 mmHg 67%
    14:00 +13°C° 0.2 mm 6 m/S 653 mmHg 72%
    15:00 +11°C° 0.2 mm 6 m/S 653 mmHg 76%
    16:00 +12°C° 0.2 mm 5 m/S 652 mmHg 81%
    17:00 +10°C° 0.2 mm 5 m/S 652 mmHg 84%
    18:00 +9°C° 0.2 mm 6 m/S 653 mmHg 87%
    19:00 +9°C° 0.2 mm 6 m/S 653 mmHg 91%
    20:00 +9°C° 0.2 mm 6 m/S 653 mmHg 91%
    21:00 +9°C° 0.2 mm 6 m/S 653 mmHg 91%
    22:00 +9°C° 0.2 mm 6 m/S 653 mmHg 91%
    23:00 +9°C° 0.2 mm 6 m/S 653 mmHg 92%

    28 Oktober, Sonntag

    Zeit Temperatur Niederschläge Wind Luftdruck Luftfeuchtigkeit
    00:00 +8°C° 0.2 mm 6 m/S 653 mmHg 92%
    01:00 +8°C° 0.2 mm 6 m/S 652 mmHg 92%
    02:00 +8°C° 0.1 mm 6 m/S 652 mmHg 92%
    03:00 +8°C° 0.1 mm 6 m/S 652 mmHg 92%
    04:00 +7°C° 0.1 mm 5 m/S 652 mmHg 92%
    05:00 +7°C° 0 mm 6 m/S 652 mmHg 89%
    06:00 +7°C° 0 mm 6 m/S 652 mmHg 87%
    07:00 +7°C° 0 mm 6 m/S 652 mmHg 85%
    08:00 +8°C° 0 mm 6 m/S 653 mmHg 78%
    09:00 +10°C° 0 mm 6 m/S 653 mmHg 71%
    10:00 +11°C° 0 mm 7 m/S 654 mmHg 64%
    11:00 +11°C° 0.1 mm 7 m/S 653 mmHg 64%
    12:00 +12°C° 0.1 mm 7 m/S 653 mmHg 63%
    13:00 +12°C° 0.1 mm 7 m/S 653 mmHg 63%
    14:00 +11°C° 0.1 mm 6 m/S 653 mmHg 67%
    15:00 +11°C° 0.1 mm 6 m/S 653 mmHg 71%
    16:00 +11°C° 0.1 mm 6 m/S 652 mmHg 76%
    17:00 +10°C° 0.1 mm 6 m/S 652 mmHg 79%
    18:00 +9°C° 0.1 mm 6 m/S 652 mmHg 82%
    19:00 +9°C° 0.1 mm 6 m/S 652 mmHg 84%
    20:00 +9°C° 0.1 mm 6 m/S 652 mmHg 84%
    21:00 +8°C° 0.1 mm 6 m/S 652 mmHg 83%
    22:00 +8°C° 0.1 mm 6 m/S 652 mmHg 82%
    23:00 +8°C° 0 mm 6 m/S 652 mmHg 82%
    Mehr zeigen